Overview Statistics Trail Chart Weather Telemetry Raw packets
 

This is the latest recevied weather packets stored in our database for station/object ALANSN-2. If no packets are shown the sender has not sent any weather packets the latest 10 day(s).

<< 108 109 110 111 112 113 114 >>
Time Temp. Humidity Pressure Rain* Wind** Luminosity Snow
1787745421 18.89° C 85% 1023.1 hPa 0 mm - 9 W/m² -
1787745120 18.89° C 84% 1022.9 hPa 0 mm - 7 W/m² -
1787744820 19.44° C 83% 1023 hPa 0 mm - 7 W/m² -
1787744520 19.44° C 83% 1023 hPa 0 mm - 7 W/m² -
1787744220 19.44° C 82% 1022.9 hPa 0 mm - 5 W/m² -
1787743920 19.44° C 83% 1023.1 hPa 0 mm - 4 W/m² -
1787743620 19.44° C 83% 1023.1 hPa 0 mm - 4 W/m² -
1787743320 19.44° C 81% 1022.9 hPa 0 mm - 5 W/m² -
1787743020 20° C 80% 1022.8 hPa 0 mm - 2 W/m² -
1787742721 20° C 80% 1022.8 hPa 0 mm - 2 W/m² -
1787742420 20° C 79% 1023 hPa 0 mm - 1 W/m² -
1787742120 20° C 79% 1023.3 hPa 0 mm - 1 W/m² -
1787741820 19.44° C 79% 1023.2 hPa 0 mm - 0 W/m² -
1787741520 20° C 77% 1023.1 hPa 0 mm - 0 W/m² -
1787741220 20° C 78% 1023.2 hPa 0 mm - 0 W/m² -
1787740920 20° C 78% 1023.2 hPa 0 mm - 0 W/m² -
1787740620 20° C 77% 1023 hPa 0 mm - 0 W/m² -
1787740320 20° C 76% 1023.2 hPa 0 mm - 0 W/m² -
1787740020 20° C 75% 1023.1 hPa 0 mm - 0 W/m² -
1787739720 20° C 75% 1023.1 hPa 0 mm - 0 W/m² -
1787739420 20° C 79% 1023.1 hPa 0 mm - 0 W/m² -
1787739120 20° C 76% 1023.1 hPa 0 mm - 0 W/m² -
1787738821 20° C 74% 1023.1 hPa 0 mm - 0 W/m² -
1787738520 20° C 74% 1023.3 hPa 0 mm - 0 W/m² -
1787738220 20° C 73% 1023.5 hPa 0 mm - 0 W/m² -

* Rain latest hour (hover to see other rain measurements)
** Current wind speed in m/s (hover to see current wind gust speed)